contact:dominique.lefevre@mio.osupytheas.fr, maurice.libes@osupytheas.fr, didier.mallarino@osupytheas.fr
Project:EMSO http://www.emso-fr.org/EMSO-France
Depth: 2436.0 m
Title:EMSO Ligure Ouest : Data MII capteur MICROCAT
DateTime_Computer,Latitude,Longitude,Temperature,Conductivity,Pressure,DateTime_Instrument
DateTime_Computer,Latitude,Longitude,degC,S m-1,dbar,DateTime_Instrument
2022-05-25T00:00:55Z,42.805,6.029,13.3004,4.60035,2470.614,2022-5-25T02:02:36Z
2022-05-25T00:03:58Z,42.805,6.029,13.2996,4.60031,2470.591,2022-5-25T02:05:39Z
2022-05-25T00:07:01Z,42.805,6.029,13.3001,4.60030,2470.614,2022-5-25T02:08:43Z
2022-05-25T00:10:04Z,42.805,6.029,13.3001,4.60030,2470.614,2022-5-25T02:11:46Z
2022-05-25T00:13:07Z,42.805,6.029,13.2998,4.60031,2470.637,2022-5-25T02:14:49Z
2022-05-25T00:16:10Z,42.805,6.029,13.2998,4.60032,2470.646,2022-5-25T02:17:52Z
2022-05-25T00:19:13Z,42.805,6.029,13.3000,4.60031,2470.624,2022-5-25T02:20:55Z
2022-05-25T00:22:16Z,42.805,6.029,13.3002,4.60031,2470.637,2022-5-25T02:23:58Z
2022-05-25T00:25:20Z,42.805,6.029,13.2999,4.60031,2470.6,2022-5-25T02:27:01Z
2022-05-25T00:28:23Z,42.805,6.029,13.2998,4.60030,2470.624,2022-5-25T02:30:04Z
2022-05-25T00:31:26Z,42.805,6.029,13.2998,4.60031,2470.624,2022-5-25T02:33:07Z
2022-05-25T00:34:29Z,42.805,6.029,13.3000,4.60030,2470.646,2022-5-25T02:36:11Z
2022-05-25T00:37:32Z,42.805,6.029,13.2996,4.60031,2470.637,2022-5-25T02:39:14Z
2022-05-25T00:40:35Z,42.805,6.029,13.3000,4.60030,2470.624,2022-5-25T02:42:17Z
2022-05-25T00:43:38Z,42.805,6.029,13.2999,4.60033,2470.637,2022-5-25T02:45:20Z
2022-05-25T00:46:41Z,42.805,6.029,13.3004,4.60031,2470.684,2022-5-25T02:48:23Z
2022-05-25T00:49:44Z,42.805,6.029,13.3005,4.60031,2470.661,2022-5-25T02:51:26Z
2022-05-25T00:52:48Z,42.805,6.029,13.3000,4.60031,2470.661,2022-5-25T02:54:29Z
2022-05-25T00:55:51Z,42.805,6.029,13.3002,4.60031,2470.646,2022-5-25T02:57:32Z
2022-05-25T00:58:54Z,42.805,6.029,13.3000,4.60031,2470.661,2022-5-25T03:00:36Z
2022-05-25T01:01:57Z,42.805,6.029,13.3004,4.60031,2470.646,2022-5-25T03:03:39Z
2022-05-25T01:05:00Z,42.805,6.029,13.3000,4.60031,2470.646,2022-5-25T03:06:42Z
2022-05-25T01:08:03Z,42.805,6.029,13.2999,4.60030,2470.661,2022-5-25T03:09:45Z
2022-05-25T01:11:06Z,42.805,6.029,13.2998,4.60031,2470.661,2022-5-25T03:12:48Z
2022-05-25T01:14:09Z,42.805,6.029,13.3001,4.60030,2470.646,2022-5-25T03:15:51Z
2022-05-25T01:17:13Z,42.805,6.029,13.2999,4.60029,2470.646,2022-5-25T03:18:54Z
2022-05-25T01:20:16Z,42.805,6.029,13.3000,4.60030,2470.67,2022-5-25T03:21:57Z
2022-05-25T01:23:19Z,42.805,6.029,13.3002,4.60030,2470.646,2022-5-25T03:25:01Z
2022-05-25T01:26:22Z,42.805,6.029,13.3002,4.60029,2470.684,2022-5-25T03:28:04Z
2022-05-25T01:29:25Z,42.805,6.029,13.3002,4.60029,2470.67,2022-5-25T03:31:07Z
2022-05-25T01:32:28Z,42.805,6.029,13.2998,4.60029,2470.67,2022-5-25T03:34:10Z
2022-05-25T01:35:31Z,42.805,6.029,13.3001,4.60030,2470.707,2022-5-25T03:37:13Z
2022-05-25T01:38:34Z,42.805,6.029,13.3000,4.60031,2470.707,2022-5-25T03:40:16Z
2022-05-25T01:41:38Z,42.805,6.029,13.2998,4.60030,2470.693,2022-5-25T03:43:19Z
2022-05-25T01:44:41Z,42.805,6.029,13.2998,4.60029,2470.646,2022-5-25T03:46:22Z
2022-05-25T01:47:44Z,42.805,6.029,13.3003,4.60029,2470.67,2022-5-25T03:49:25Z
2022-05-25T01:50:47Z,42.805,6.029,13.2999,4.60029,2470.684,2022-5-25T03:52:29Z
2022-05-25T01:53:50Z,42.805,6.029,13.3004,4.60031,2470.67,2022-5-25T03:55:32Z
2022-05-25T01:56:53Z,42.805,6.029,13.2999,4.60031,2470.67,2022-5-25T03:58:35Z
2022-05-25T01:59:56Z,42.805,6.029,13.3000,4.60032,2470.684,2022-5-25T04:01:38Z
2022-05-25T02:02:59Z,42.805,6.029,13.3004,4.60029,2470.717,2022-5-25T04:04:41Z
2022-05-25T02:06:02Z,42.805,6.029,13.3004,4.60031,2470.693,2022-5-25T04:07:44Z
2022-05-25T02:09:06Z,42.805,6.029,13.2996,4.60031,2470.67,2022-5-25T04:10:47Z
2022-05-25T02:12:09Z,42.805,6.029,13.2999,4.60030,2470.717,2022-5-25T04:13:50Z
2022-05-25T02:15:12Z,42.805,6.029,13.3001,4.60029,2470.67,2022-5-25T04:16:54Z
2022-05-25T02:18:15Z,42.805,6.029,13.3000,4.60031,2470.693,2022-5-25T04:19:57Z
2022-05-25T02:21:18Z,42.805,6.029,13.2998,4.60030,2470.717,2022-5-25T04:23:00Z
2022-05-25T02:24:21Z,42.805,6.029,13.2996,4.60031,2470.693,2022-5-25T04:26:03Z
2022-05-25T02:27:24Z,42.805,6.029,13.3002,4.60030,2470.693,2022-5-25T04:29:06Z
2022-05-25T02:30:27Z,42.805,6.029,13.3001,4.60030,2470.693,2022-5-25T04:32:09Z
2022-05-25T02:33:31Z,42.805,6.029,13.3000,4.60029,2470.754,2022-5-25T04:35:12Z
2022-05-25T02:36:34Z,42.805,6.029,13.3003,4.60029,2470.693,2022-5-25T04:38:15Z
2022-05-25T02:39:37Z,42.805,6.029,13.2998,4.60030,2470.707,2022-5-25T04:41:19Z
2022-05-25T02:42:40Z,42.805,6.029,13.3000,4.60031,2470.693,2022-5-25T04:44:22Z
2022-05-25T02:45:43Z,42.805,6.029,13.3000,4.60031,2470.707,2022-5-25T04:47:25Z
2022-05-25T02:48:46Z,42.805,6.029,13.3000,4.60029,2470.717,2022-5-25T04:50:28Z
2022-05-25T02:51:49Z,42.805,6.029,13.3000,4.60030,2470.717,2022-5-25T04:53:31Z
2022-05-25T02:54:52Z,42.805,6.029,13.3000,4.60031,2470.717,2022-5-25T04:56:34Z
2022-05-25T02:57:56Z,42.805,6.029,13.3004,4.60030,2470.74,2022-5-25T04:59:37Z
2022-05-25T03:00:59Z,42.805,6.029,13.3002,4.60034,2470.717,2022-5-25T05:02:40Z
2022-05-25T03:04:02Z,42.805,6.029,13.3000,4.60031,2470.717,2022-5-25T05:05:43Z
2022-05-25T03:07:05Z,42.805,6.029,13.2996,4.60031,2470.707,2022-5-25T05:08:47Z
2022-05-25T03:10:08Z,42.805,6.029,13.3005,4.60031,2470.754,2022-5-25T05:11:50Z
2022-05-25T03:13:11Z,42.805,6.029,13.3000,4.60031,2470.693,2022-5-25T05:14:53Z
2022-05-25T03:16:14Z,42.805,6.029,13.3002,4.60031,2470.693,2022-5-25T05:17:56Z
2022-05-25T03:19:17Z,42.805,6.029,13.2998,4.60031,2470.693,2022-5-25T05:20:59Z
2022-05-25T03:22:21Z,42.805,6.029,13.3002,4.60031,2470.754,2022-5-25T05:24:02Z
2022-05-25T03:25:24Z,42.805,6.029,13.2999,4.60033,2470.707,2022-5-25T05:27:05Z
2022-05-25T03:28:27Z,42.805,6.029,13.3003,4.60031,2470.707,2022-5-25T05:30:08Z
2022-05-25T03:31:30Z,42.805,6.029,13.3002,4.60030,2470.717,2022-5-25T05:33:12Z
2022-05-25T03:34:33Z,42.805,6.029,13.3000,4.60030,2470.74,2022-5-25T05:36:15Z
2022-05-25T03:37:36Z,42.805,6.029,13.3000,4.60031,2470.74,2022-5-25T05:39:18Z
2022-05-25T03:40:39Z,42.805,6.029,13.3003,4.60031,2470.707,2022-5-25T05:42:21Z
2022-05-25T03:43:42Z,42.805,6.029,13.2999,4.60031,2470.717,2022-5-25T05:45:24Z
2022-05-25T03:46:45Z,42.805,6.029,13.3003,4.60030,2470.73,2022-5-25T05:48:27Z
2022-05-25T03:49:49Z,42.805,6.029,13.2999,4.60030,2470.73,2022-5-25T05:51:30Z
2022-05-25T03:52:52Z,42.805,6.029,13.3000,4.60031,2470.74,2022-5-25T05:54:33Z
2022-05-25T03:55:55Z,42.805,6.029,13.2998,4.60031,2470.754,2022-5-25T05:57:37Z
2022-05-25T03:58:58Z,42.805,6.029,13.3000,4.60030,2470.717,2022-5-25T06:00:40Z
2022-05-25T04:02:01Z,42.805,6.029,13.2998,4.60031,2470.717,2022-5-25T06:03:43Z
2022-05-25T04:05:04Z,42.805,6.029,13.3000,4.60031,2470.74,2022-5-25T06:06:46Z
2022-05-25T04:08:07Z,42.805,6.029,13.3002,4.60031,2470.74,2022-5-25T06:09:49Z
2022-05-25T04:11:10Z,42.805,6.029,13.3003,4.60032,2470.717,2022-5-25T06:12:52Z
2022-05-25T04:14:14Z,42.805,6.029,13.3006,4.60031,2470.693,2022-5-25T06:15:55Z
2022-05-25T04:17:17Z,42.805,6.029,13.3000,4.60030,2470.693,2022-5-25T06:18:58Z
2022-05-25T04:20:20Z,42.805,6.029,13.3000,4.60031,2470.707,2022-5-25T06:22:02Z
2022-05-25T04:23:23Z,42.805,6.029,13.3000,4.60031,2470.693,2022-5-25T06:25:05Z
2022-05-25T04:26:26Z,42.805,6.029,13.2999,4.60031,2470.717,2022-5-25T06:28:08Z
2022-05-25T04:29:29Z,42.805,6.029,13.3002,4.60031,2470.754,2022-5-25T06:31:11Z
2022-05-25T04:32:32Z,42.805,6.029,13.3000,4.60031,2470.684,2022-5-25T06:34:14Z
2022-05-25T04:35:35Z,42.805,6.029,13.3000,4.60031,2470.74,2022-5-25T06:37:17Z
2022-05-25T04:38:39Z,42.805,6.029,13.3000,4.60032,2470.717,2022-5-25T06:40:20Z
2022-05-25T04:41:42Z,42.805,6.029,13.3001,4.60030,2470.73,2022-5-25T06:43:23Z
2022-05-25T04:44:45Z,42.805,6.029,13.3004,4.60030,2470.73,2022-5-25T06:46:26Z
2022-05-25T04:47:48Z,42.805,6.029,13.2998,4.60031,2470.717,2022-5-25T06:49:30Z
2022-05-25T04:50:51Z,42.805,6.029,13.3001,4.60032,2470.74,2022-5-25T06:52:33Z
2022-05-25T04:53:54Z,42.805,6.029,13.3002,4.60031,2470.67,2022-5-25T06:55:36Z
2022-05-25T04:56:57Z,42.805,6.029,13.3001,4.60031,2470.717,2022-5-25T06:58:39Z
2022-05-25T05:00:00Z,42.805,6.029,13.3000,4.60031,2470.703,2022-5-25T07:01:42Z
2022-05-25T05:03:03Z,42.805,6.029,13.3000,4.60033,2470.73,2022-5-25T07:04:45Z
2022-05-25T05:06:07Z,42.805,6.029,13.3004,4.60033,2470.754,2022-5-25T07:07:48Z
2022-05-25T05:09:10Z,42.805,6.029,13.3000,4.60033,2470.73,2022-5-25T07:10:51Z
2022-05-25T05:12:13Z,42.805,6.029,13.3001,4.60031,2470.717,2022-5-25T07:13:55Z
2022-05-25T05:15:16Z,42.805,6.029,13.3002,4.60033,2470.684,2022-5-25T07:16:58Z
2022-05-25T05:18:19Z,42.805,6.029,13.3000,4.60031,2470.717,2022-5-25T07:20:01Z
2022-05-25T05:21:22Z,42.805,6.029,13.3005,4.60031,2470.754,2022-5-25T07:23:04Z
2022-05-25T05:24:25Z,42.805,6.029,13.3000,4.60031,2470.67,2022-5-25T07:26:07Z
2022-05-25T05:27:28Z,42.805,6.029,13.3004,4.60031,2470.693,2022-5-25T07:29:10Z
2022-05-25T05:30:32Z,42.805,6.029,13.3000,4.60031,2470.693,2022-5-25T07:32:13Z
2022-05-25T05:33:35Z,42.805,6.029,13.3000,4.60031,2470.707,2022-5-25T07:35:16Z
2022-05-25T05:36:38Z,42.805,6.029,13.3000,4.60031,2470.707,2022-5-25T07:38:20Z
2022-05-25T05:39:41Z,42.805,6.029,13.3000,4.60031,2470.693,2022-5-25T07:41:23Z
2022-05-25T05:42:44Z,42.805,6.029,13.2998,4.60031,2470.707,2022-5-25T07:44:26Z
2022-05-25T05:45:47Z,42.805,6.029,13.3000,4.60030,2470.67,2022-5-25T07:47:29Z
2022-05-25T05:48:50Z,42.805,6.029,13.3001,4.60031,2470.707,2022-5-25T07:50:32Z
2022-05-25T05:51:53Z,42.805,6.029,13.3001,4.60034,2470.717,2022-5-25T07:53:35Z
2022-05-25T05:54:57Z,42.805,6.029,13.3004,4.60031,2470.684,2022-5-25T07:56:38Z
2022-05-25T05:58:00Z,42.805,6.029,13.3005,4.60033,2470.67,2022-5-25T07:59:41Z
2022-05-25T06:01:03Z,42.805,6.029,13.3003,4.60030,2470.717,2022-5-25T08:02:45Z
2022-05-25T06:04:06Z,42.805,6.029,13.2997,4.60031,2470.693,2022-5-25T08:05:48Z
2022-05-25T06:07:09Z,42.805,6.029,13.3001,4.60030,2470.73,2022-5-25T08:08:51Z
2022-05-25T06:10:12Z,42.805,6.029,13.3000,4.60032,2470.693,2022-5-25T08:11:54Z
2022-05-25T06:13:15Z,42.805,6.029,13.3003,4.60031,2470.67,2022-5-25T08:14:57Z
2022-05-25T06:16:18Z,42.805,6.029,13.3000,4.60031,2470.684,2022-5-25T08:18:00Z
2022-05-25T06:19:22Z,42.805,6.029,13.3004,4.60030,2470.693,2022-5-25T08:21:03Z
2022-05-25T06:22:25Z,42.805,6.029,13.3003,4.60032,2470.707,2022-5-25T08:24:06Z
2022-05-25T06:25:28Z,42.805,6.029,13.3003,4.60031,2470.707,2022-5-25T08:27:09Z
2022-05-25T06:28:31Z,42.805,6.029,13.2997,4.60031,2470.646,2022-5-25T08:30:13Z
2022-05-25T06:31:34Z,42.805,6.029,13.3000,4.60031,2470.646,2022-5-25T08:33:16Z
2022-05-25T06:34:37Z,42.805,6.029,13.3001,4.60031,2470.646,2022-5-25T08:36:19Z
2022-05-25T06:37:40Z,42.805,6.029,13.3004,4.60031,2470.67,2022-5-25T08:39:22Z
2022-05-25T06:40:43Z,42.805,6.029,13.3001,4.60031,2470.67,2022-5-25T08:42:25Z
2022-05-25T06:43:47Z,42.805,6.029,13.3000,4.60031,2470.646,2022-5-25T08:45:28Z
2022-05-25T06:46:50Z,42.805,6.029,13.3003,4.60031,2470.684,2022-5-25T08:48:31Z
2022-05-25T06:49:53Z,42.805,6.029,13.3004,4.60031,2470.656,2022-5-25T08:51:34Z
2022-05-25T06:52:56Z,42.805,6.029,13.3004,4.60031,2470.661,2022-5-25T08:54:38Z
2022-05-25T06:55:59Z,42.805,6.029,13.2997,4.60031,2470.67,2022-5-25T08:57:41Z
2022-05-25T06:59:02Z,42.805,6.029,13.3004,4.60031,2470.67,2022-5-25T09:00:44Z
2022-05-25T07:02:05Z,42.805,6.029,13.3001,4.60031,2470.684,2022-5-25T09:03:47Z
2022-05-25T07:05:08Z,42.805,6.029,13.2999,4.60031,2470.661,2022-5-25T09:06:50Z
2022-05-25T07:08:11Z,42.805,6.029,13.3000,4.60031,2470.646,2022-5-25T09:09:53Z
2022-05-25T07:11:15Z,42.805,6.029,13.2998,4.60031,2470.624,2022-5-25T09:12:56Z
2022-05-25T07:14:18Z,42.805,6.029,13.3000,4.60031,2470.661,2022-5-25T09:15:59Z
2022-05-25T07:17:21Z,42.805,6.029,13.3008,4.60032,2470.6,2022-5-25T09:19:03Z
2022-05-25T07:20:24Z,42.805,6.029,13.3003,4.60031,2470.646,2022-5-25T09:22:06Z
2022-05-25T07:23:27Z,42.805,6.029,13.3003,4.60031,2470.646,2022-5-25T09:25:09Z
2022-05-25T07:26:30Z,42.805,6.029,13.3003,4.60035,2470.624,2022-5-25T09:28:12Z
2022-05-25T07:29:33Z,42.805,6.029,13.3003,4.60031,2470.637,2022-5-25T09:31:15Z
2022-05-25T07:32:36Z,42.805,6.029,13.3004,4.60031,2470.646,2022-5-25T09:34:18Z
2022-05-25T07:35:40Z,42.805,6.029,13.2998,4.60031,2470.6,2022-5-25T09:37:21Z
2022-05-25T07:38:43Z,42.805,6.029,13.3004,4.60031,2470.624,2022-5-25T09:40:24Z
2022-05-25T07:41:46Z,42.805,6.029,13.2998,4.60031,2470.646,2022-5-25T09:43:28Z
2022-05-25T07:44:49Z,42.805,6.029,13.3001,4.60031,2470.591,2022-5-25T09:46:31Z
2022-05-25T07:47:52Z,42.805,6.029,13.3002,4.60031,2470.624,2022-5-25T09:49:34Z
2022-05-25T07:50:55Z,42.805,6.029,13.3002,4.60031,2470.646,2022-5-25T09:52:37Z
2022-05-25T07:53:58Z,42.805,6.029,13.3000,4.60030,2470.637,2022-5-25T09:55:40Z
2022-05-25T07:57:01Z,42.805,6.029,13.3004,4.60031,2470.637,2022-5-25T09:58:43Z
2022-05-25T08:00:05Z,42.805,6.029,13.3004,4.60033,2470.637,2022-5-25T10:01:46Z
2022-05-25T08:03:08Z,42.805,6.029,13.3000,4.60031,2470.6,2022-5-25T10:04:49Z
2022-05-25T08:06:11Z,42.805,6.029,13.3002,4.60031,2470.661,2022-5-25T10:07:52Z
2022-05-25T08:09:14Z,42.805,6.029,13.2997,4.60031,2470.624,2022-5-25T10:10:56Z
2022-05-25T08:12:17Z,42.805,6.029,13.3000,4.60031,2470.614,2022-5-25T10:13:59Z
2022-05-25T08:15:20Z,42.805,6.029,13.3003,4.60031,2470.6,2022-5-25T10:17:02Z
2022-05-25T08:18:23Z,42.805,6.029,13.2999,4.60031,2470.577,2022-5-25T10:20:05Z
2022-05-25T08:21:26Z,42.805,6.029,13.3000,4.60031,2470.6,2022-5-25T10:23:08Z
2022-05-25T08:24:30Z,42.805,6.029,13.3000,4.60031,2470.624,2022-5-25T10:26:11Z
2022-05-25T08:27:33Z,42.805,6.029,13.3001,4.60031,2470.6,2022-5-25T10:29:14Z
2022-05-25T08:30:36Z,42.805,6.029,13.3004,4.60031,2470.6,2022-5-25T10:32:18Z
2022-05-25T08:33:39Z,42.805,6.029,13.3002,4.60031,2470.591,2022-5-25T10:35:21Z
2022-05-25T08:36:42Z,42.805,6.029,13.3006,4.60031,2470.6,2022-5-25T10:38:24Z
2022-05-25T08:39:45Z,42.805,6.029,13.3002,4.60031,2470.6,2022-5-25T10:41:27Z
2022-05-25T08:42:48Z,42.805,6.029,13.3003,4.60031,2470.577,2022-5-25T10:44:30Z
2022-05-25T08:45:51Z,42.805,6.029,13.3003,4.60031,2470.577,2022-5-25T10:47:33Z
2022-05-25T08:48:55Z,42.805,6.029,13.3002,4.60031,2470.6,2022-5-25T10:50:36Z
2022-05-25T08:51:58Z,42.805,6.029,13.3000,4.60032,2470.614,2022-5-25T10:53:39Z
2022-05-25T08:55:01Z,42.805,6.029,13.2998,4.60031,2470.614,2022-5-25T10:56:43Z
2022-05-25T08:58:04Z,42.805,6.029,13.3003,4.60031,2470.577,2022-5-25T10:59:46Z
2022-05-25T09:01:07Z,42.805,6.029,13.3001,4.60031,2470.6,2022-5-25T11:02:49Z
2022-05-25T09:04:10Z,42.805,6.029,13.3001,4.60031,2470.614,2022-5-25T11:05:52Z
2022-05-25T09:07:13Z,42.805,6.029,13.2998,4.60031,2470.6,2022-5-25T11:08:55Z
2022-05-25T09:10:16Z,42.805,6.029,13.3000,4.60031,2470.591,2022-5-25T11:11:58Z
2022-05-25T09:13:20Z,42.805,6.029,13.3004,4.60031,2470.577,2022-5-25T11:15:01Z
2022-05-25T09:16:23Z,42.805,6.029,13.2998,4.60031,2470.614,2022-5-25T11:18:04Z
2022-05-25T09:19:26Z,42.805,6.029,13.3003,4.60031,2470.577,2022-5-25T11:21:08Z
2022-05-25T09:22:29Z,42.805,6.029,13.3002,4.60031,2470.553,2022-5-25T11:24:11Z
2022-05-25T09:25:32Z,42.805,6.029,13.3002,4.60031,2470.577,2022-5-25T11:27:14Z
2022-05-25T09:28:35Z,42.805,6.029,13.3003,4.60032,2470.577,2022-5-25T11:30:17Z
2022-05-25T09:31:38Z,42.805,6.029,13.2999,4.60031,2470.614,2022-5-25T11:33:20Z
2022-05-25T09:34:41Z,42.805,6.029,13.3000,4.60032,2470.553,2022-5-25T11:36:23Z
2022-05-25T09:37:45Z,42.805,6.029,13.3001,4.60031,2470.577,2022-5-25T11:39:26Z
2022-05-25T09:40:48Z,42.805,6.029,13.3001,4.60031,2470.577,2022-5-25T11:42:29Z
2022-05-25T09:43:51Z,42.805,6.029,13.3004,4.60031,2470.577,2022-5-25T11:45:33Z
2022-05-25T09:46:54Z,42.805,6.029,13.3000,4.60031,2470.577,2022-5-25T11:48:36Z
2022-05-25T09:49:57Z,42.805,6.029,13.3001,4.60032,2470.591,2022-5-25T11:51:39Z
2022-05-25T09:53:00Z,42.805,6.029,13.3004,4.60031,2470.6,2022-5-25T11:54:42Z
2022-05-25T09:56:03Z,42.805,6.029,13.3004,4.60031,2470.553,2022-5-25T11:57:45Z
2022-05-25T09:59:06Z,42.805,6.029,13.2998,4.60032,2470.577,2022-5-25T12:00:48Z
2022-05-25T10:02:10Z,42.805,6.029,13.3003,4.60032,2470.577,2022-5-25T12:03:51Z
2022-05-25T10:05:13Z,42.805,6.029,13.3004,4.60032,2470.553,2022-5-25T12:06:54Z
2022-05-25T10:08:16Z,42.805,6.029,13.3004,4.60031,2470.577,2022-5-25T12:09:58Z
2022-05-25T10:11:19Z,42.805,6.029,13.3000,4.60033,2470.577,2022-5-25T12:13:01Z
2022-05-25T10:14:22Z,42.805,6.029,13.3002,4.60031,2470.577,2022-5-25T12:16:04Z
2022-05-25T10:17:25Z,42.805,6.029,13.3002,4.60031,2470.553,2022-5-25T12:19:07Z
2022-05-25T10:20:28Z,42.805,6.029,13.3000,4.60032,2470.567,2022-5-25T12:22:10Z
2022-05-25T10:23:31Z,42.805,6.029,13.3001,4.60031,2470.567,2022-5-25T12:25:13Z
2022-05-25T10:26:35Z,42.805,6.029,13.3003,4.60031,2470.53,2022-5-25T12:28:16Z
2022-05-25T10:29:38Z,42.805,6.029,13.3006,4.60031,2470.544,2022-5-25T12:31:19Z
2022-05-25T10:32:41Z,42.805,6.029,13.3000,4.60031,2470.577,2022-5-25T12:34:23Z
2022-05-25T10:35:44Z,42.805,6.029,13.3001,4.60032,2470.577,2022-5-25T12:37:26Z
2022-05-25T10:38:47Z,42.805,6.029,13.3004,4.60032,2470.553,2022-5-25T12:40:29Z
2022-05-25T10:41:50Z,42.805,6.029,13.3006,4.60031,2470.53,2022-5-25T12:43:32Z
2022-05-25T10:44:53Z,42.805,6.029,13.3000,4.60031,2470.53,2022-5-25T12:46:35Z
2022-05-25T10:47:56Z,42.805,6.029,13.3004,4.60031,2470.591,2022-5-25T12:49:38Z
2022-05-25T10:51:00Z,42.805,6.029,13.3002,4.60031,2470.544,2022-5-25T12:52:41Z
2022-05-25T10:54:03Z,42.805,6.029,13.3003,4.60031,2470.553,2022-5-25T12:55:44Z
2022-05-25T10:57:06Z,42.805,6.029,13.3000,4.60031,2470.553,2022-5-25T12:58:48Z
2022-05-25T11:00:09Z,42.805,6.029,13.2998,4.60032,2470.53,2022-5-25T13:01:51Z
2022-05-25T11:03:12Z,42.805,6.029,13.2998,4.60032,2470.553,2022-5-25T13:04:54Z
2022-05-25T11:06:15Z,42.805,6.029,13.3004,4.60031,2470.567,2022-5-25T13:07:57Z
2022-05-25T11:09:18Z,42.805,6.029,13.2998,4.60032,2470.544,2022-5-25T13:11:00Z
2022-05-25T11:12:21Z,42.805,6.029,13.3004,4.60032,2470.577,2022-5-25T13:14:03Z
2022-05-25T11:15:25Z,42.805,6.029,13.3003,4.60032,2470.577,2022-5-25T13:17:06Z
2022-05-25T11:18:28Z,42.805,6.029,13.2998,4.60031,2470.553,2022-5-25T13:20:09Z
2022-05-25T11:21:31Z,42.805,6.029,13.2998,4.60031,2470.544,2022-5-25T13:23:13Z
2022-05-25T11:24:34Z,42.805,6.029,13.3002,4.60032,2470.53,2022-5-25T13:26:16Z
2022-05-25T11:27:37Z,42.805,6.029,13.3003,4.60031,2470.577,2022-5-25T13:29:19Z
2022-05-25T11:30:40Z,42.805,6.029,13.3000,4.60034,2470.53,2022-5-25T13:32:22Z
2022-05-25T11:33:43Z,42.805,6.029,13.3001,4.60031,2470.553,2022-5-25T13:35:25Z
2022-05-25T11:36:46Z,42.805,6.029,13.3002,4.60033,2470.6,2022-5-25T13:38:28Z
2022-05-25T11:39:50Z,42.805,6.029,13.3003,4.60032,2470.567,2022-5-25T13:41:31Z
2022-05-25T11:42:53Z,42.805,6.029,13.3000,4.60032,2470.567,2022-5-25T13:44:34Z
2022-05-25T11:45:56Z,42.805,6.029,13.3001,4.60031,2470.553,2022-5-25T13:47:38Z
2022-05-25T11:48:59Z,42.805,6.029,13.3000,4.60031,2470.553,2022-5-25T13:50:41Z
2022-05-25T11:52:02Z,42.805,6.029,13.3000,4.60032,2470.577,2022-5-25T13:53:44Z
2022-05-25T11:55:05Z,42.805,6.029,13.3002,4.60032,2470.591,2022-5-25T13:56:47Z
2022-05-25T11:58:08Z,42.805,6.029,13.3004,4.60032,2470.567,2022-5-25T13:59:50Z
2022-05-25T12:01:11Z,42.805,6.029,13.3004,4.60032,2470.567,2022-5-25T14:02:53Z
2022-05-25T12:04:15Z,42.805,6.029,13.2998,4.60031,2470.577,2022-5-25T14:05:56Z
2022-05-25T12:07:18Z,42.805,6.029,13.3002,4.60031,2470.6,2022-5-25T14:08:59Z
2022-05-25T12:10:21Z,42.805,6.029,13.3003,4.60031,2470.553,2022-5-25T14:12:03Z
2022-05-25T12:13:24Z,42.805,6.029,13.3006,4.60032,2470.553,2022-5-25T14:15:06Z
2022-05-25T12:16:27Z,42.805,6.029,13.3001,4.60031,2470.577,2022-5-25T14:18:09Z
2022-05-25T12:19:30Z,42.805,6.029,13.3003,4.60031,2470.591,2022-5-25T14:21:12Z
2022-05-25T12:22:33Z,42.805,6.029,13.3002,4.60036,2470.553,2022-5-25T14:24:15Z
2022-05-25T12:25:36Z,42.805,6.029,13.3002,4.60036,2470.591,2022-5-25T14:27:18Z
2022-05-25T12:28:40Z,42.805,6.029,13.3005,4.60032,2470.577,2022-5-25T14:30:21Z
2022-05-25T12:31:43Z,42.805,6.029,13.2996,4.60031,2470.591,2022-5-25T14:33:24Z
2022-05-25T12:34:46Z,42.805,6.029,13.3004,4.60033,2470.6,2022-5-25T14:36:28Z
2022-05-25T12:37:49Z,42.805,6.029,13.3003,4.60033,2470.591,2022-5-25T14:39:31Z
2022-05-25T12:40:52Z,42.805,6.029,13.3002,4.60032,2470.577,2022-5-25T14:42:34Z
2022-05-25T12:43:55Z,42.805,6.029,13.3003,4.60032,2470.577,2022-5-25T14:45:37Z
2022-05-25T12:46:58Z,42.805,6.029,13.3003,4.60032,2470.6,2022-5-25T14:48:40Z
2022-05-25T12:50:02Z,42.805,6.029,13.3004,4.60031,2470.6,2022-5-25T14:51:43Z
2022-05-25T12:53:05Z,42.805,6.029,13.3003,4.60031,2470.567,2022-5-25T14:54:46Z
2022-05-25T12:56:08Z,42.805,6.029,13.3004,4.60032,2470.591,2022-5-25T14:57:50Z
2022-05-25T12:59:11Z,42.805,6.029,13.3001,4.60032,2470.591,2022-5-25T15:00:53Z
2022-05-25T13:02:14Z,42.805,6.029,13.3003,4.60031,2470.577,2022-5-25T15:03:56Z
2022-05-25T13:05:17Z,42.805,6.029,13.3004,4.60032,2470.614,2022-5-25T15:06:59Z
2022-05-25T13:08:20Z,42.805,6.029,13.2998,4.60031,2470.614,2022-5-25T15:10:02Z
2022-05-25T13:11:23Z,42.805,6.029,13.3001,4.60031,2470.6,2022-5-25T15:13:05Z
2022-05-25T13:14:27Z,42.805,6.029,13.3005,4.60031,2470.577,2022-5-25T15:16:08Z
2022-05-25T13:17:30Z,42.805,6.029,13.3002,4.60032,2470.577,2022-5-25T15:19:11Z
2022-05-25T13:20:33Z,42.805,6.029,13.3004,4.60031,2470.6,2022-5-25T15:22:14Z
2022-05-25T13:23:36Z,42.805,6.029,13.3003,4.60031,2470.591,2022-5-25T15:25:18Z
2022-05-25T13:26:39Z,42.805,6.029,13.3001,4.60031,2470.624,2022-5-25T15:28:21Z
2022-05-25T13:29:42Z,42.805,6.029,13.3003,4.60032,2470.6,2022-5-25T15:31:24Z
2022-05-25T13:32:45Z,42.805,6.029,13.3003,4.60033,2470.624,2022-5-25T15:34:27Z
2022-05-25T13:35:48Z,42.805,6.029,13.3003,4.60032,2470.614,2022-5-25T15:37:30Z
2022-05-25T13:38:52Z,42.805,6.029,13.3003,4.60031,2470.6,2022-5-25T15:40:33Z
2022-05-25T13:41:55Z,42.805,6.029,13.2998,4.60032,2470.624,2022-5-25T15:43:36Z
2022-05-25T13:44:58Z,42.805,6.029,13.3003,4.60032,2470.624,2022-5-25T15:46:40Z
2022-05-25T13:48:01Z,42.805,6.029,13.3002,4.60033,2470.637,2022-5-25T15:49:43Z
2022-05-25T13:51:04Z,42.805,6.029,13.3004,4.60032,2470.624,2022-5-25T15:52:46Z
2022-05-25T13:54:07Z,42.805,6.029,13.3001,4.60032,2470.624,2022-5-25T15:55:49Z
2022-05-25T13:57:10Z,42.805,6.029,13.3000,4.60033,2470.6,2022-5-25T15:58:52Z
2022-05-25T14:00:13Z,42.805,6.029,13.3001,4.60031,2470.661,2022-5-25T16:01:55Z
2022-05-25T14:03:17Z,42.805,6.029,13.3001,4.60036,2470.661,2022-5-25T16:04:58Z
2022-05-25T14:06:20Z,42.805,6.029,13.3000,4.60032,2470.624,2022-5-25T16:08:01Z
2022-05-25T14:09:23Z,42.805,6.029,13.3005,4.60031,2470.637,2022-5-25T16:11:05Z
2022-05-25T14:12:26Z,42.805,6.029,13.3001,4.60033,2470.624,2022-5-25T16:14:08Z
2022-05-25T14:15:29Z,42.805,6.029,13.3001,4.60033,2470.6,2022-5-25T16:17:11Z
2022-05-25T14:18:32Z,42.805,6.029,13.3002,4.60032,2470.661,2022-5-25T16:20:14Z
2022-05-25T14:21:35Z,42.805,6.029,13.3004,4.60031,2470.646,2022-5-25T16:23:17Z
2022-05-25T14:24:38Z,42.805,6.029,13.3002,4.60031,2470.614,2022-5-25T16:26:20Z
2022-05-25T14:27:42Z,42.805,6.029,13.3005,4.60032,2470.684,2022-5-25T16:29:23Z
2022-05-25T14:30:45Z,42.805,6.029,13.2998,4.60031,2470.637,2022-5-25T16:32:26Z
2022-05-25T14:33:48Z,42.805,6.029,13.3002,4.60032,2470.646,2022-5-25T16:35:30Z
2022-05-25T14:36:51Z,42.805,6.029,13.3000,4.60032,2470.67,2022-5-25T16:38:33Z
2022-05-25T14:39:54Z,42.805,6.029,13.3000,4.60032,2470.624,2022-5-25T16:41:36Z
2022-05-25T14:42:57Z,42.805,6.029,13.2998,4.60032,2470.646,2022-5-25T16:44:39Z
2022-05-25T14:46:00Z,42.805,6.029,13.3008,4.60032,2470.67,2022-5-25T16:47:42Z
2022-05-25T14:49:03Z,42.805,6.029,13.3004,4.60032,2470.646,2022-5-25T16:50:45Z
2022-05-25T14:52:07Z,42.805,6.029,13.3001,4.60033,2470.661,2022-5-25T16:53:48Z
2022-05-25T14:55:10Z,42.805,6.029,13.3004,4.60032,2470.646,2022-5-25T16:56:51Z
2022-05-25T14:58:13Z,42.805,6.029,13.2998,4.60033,2470.661,2022-5-25T16:59:55Z
2022-05-25T15:01:16Z,42.805,6.029,13.3001,4.60032,2470.684,2022-5-25T17:02:58Z
2022-05-25T15:04:19Z,42.805,6.029,13.3000,4.60033,2470.624,2022-5-25T17:06:01Z
2022-05-25T15:07:22Z,42.805,6.029,13.3004,4.60033,2470.646,2022-5-25T17:09:04Z
2022-05-25T15:10:25Z,42.805,6.029,13.3000,4.60033,2470.661,2022-5-25T17:12:07Z
2022-05-25T15:13:28Z,42.805,6.029,13.3004,4.60033,2470.646,2022-5-25T17:15:10Z